MPEC 2007-V117: 2007 VH189

The following Minor Planet Electronic Circular may be linked-to from your own Web pages, but must not otherwise be redistributed electronically.


Read MPEC 2007-V116 Read MPEC 2007-V118


M.P.E.C. 2007-V117                               Issued 2007 Nov. 15, 13:57 UT

     The Minor Planet Electronic Circulars contain information on unusual
         minor planets and routine data on comets.  They are published
   on behalf of Commission 20 of the International Astronomical Union by the
          Minor Planet Center, Smithsonian Astrophysical Observatory,
                          Cambridge, MA 02138, U.S.A.

             Prepared using the Tamkin Foundation Computer Network

                              MPC@CFA.HARVARD.EDU
          URL http://www.cfa.harvard.edu/iau/mpc.html  ISSN 1523-6714

                                  2007 VH189

Observations:
     K07VI9H* C2007 11 14.35096 03 42 49.35 +05 45 45.7          20.7 V EV117G96
     K07VI9H  C2007 11 14.35422 03 42 48.70 +05 45 55.5          21.2 V EV117G96
     K07VI9H  C2007 11 14.35744 03 42 48.13 +05 46 04.8          20.4 V EV117G96
     K07VI9H  C2007 11 14.36066 03 42 47.48 +05 46 15.3          21.4 V EV117G96
     K07VI9H  C2007 11 14.38109 03 42 43.56 +05 47 18.2          21.2 V EV117G96
     K07VI9H  C2007 11 14.38176 03 42 43.41 +05 47 20.4          20.5 V EV117G96
     K07VI9H  C2007 11 14.38241 03 42 43.27 +05 47 22.3          20.5 V EV117G96
     K07VI9H  C2007 11 14.38306 03 42 43.20 +05 47 24.2          20.4 V EV117G96
     K07VI9H  C2007 11 14.40661 03 42 38.70 +05 48 36.5          20.9 V EV117G96
     K07VI9H  C2007 11 14.40714 03 42 38.59 +05 48 38.5          20.9 V EV117G96
     K07VI9H  C2007 11 14.40770 03 42 38.52 +05 48 38.8          21.2 V EV117G96
     K07VI9H  C2007 11 14.40823 03 42 38.37 +05 48 41.2          21.3 V EV117G96
     K07VI9H  C2007 11 14.93199 03 41 10.37 +06 14 40.7          20.5 R EV117J95
     K07VI9H  C2007 11 15.02900 03 40 53.12 +06 19 23.0          21.0 R EV117J95
     K07VI9H  C2007 11 15.24319 03 40 19.06 +06 29 48.6          21.2 V EV117G96
     K07VI9H  C2007 11 15.24863 03 40 18.13 +06 30 03.9          20.7 V EV117G96
     K07VI9H  C2007 11 15.25410 03 40 17.09 +06 30 19.7          21.5 V EV117G96

Observer details:
G96 Mt. Lemmon Survey.  Observer A. Boattini.  Measurers E. C. Beshore,
    A. Boattini, G. J. Garradd, A. R. Gibbs, A. D. Grauer, R. E. Hill,
    R. A. Kowalski, S. M. Larson, R. H. McNaught.  1.5-m reflector + CCD.
J95 Great Shefford.  Observer P. Birtwhistle.  0.40-m f/6.0 Schmidt-Cassegrain
    + CCD.

Orbital elements:
2007 VH189                                               Earth MOID = 0.0048 AU
Epoch 2007 Oct. 27.0 TT = JDT 2454400.5                 MPC
M   9.55755              (2000.0)            P               Q
n   0.23399309     Peri.  248.78011     +0.82196423     +0.56203912
a   2.6081588      Node    76.91341     -0.48117160     +0.77182611
e   0.7235502      Incl.    5.42717     -0.30471084     +0.29731546
P   4.21           H   23.3           G   0.15           U   8
Residuals in seconds of arc
071114 G96  0.0   0.3+    071114 G96  0.6-  0.1+    071114 J95  0.2-  0.1+
071114 G96  0.3-  0.1+    071114 G96  0.2+  0.0     071115 J95  0.1-  0.3-
071114 G96  0.4+  0.6-    071114 G96  0.1-  0.1+    071115 G96  0.0   0.1+
071114 G96  0.0   0.0     071114 G96  0.2-  0.4+    071115 G96  0.5+  0.1-
071114 G96  0.1-  0.0     071114 G96  0.3+  1.0-    071115 G96  0.6-  0.2+
071114 G96  0.4-  0.2+    071114 G96  0.4-  0.2-

Ephemeris:
2007 VH189               a,e,i = 2.61, 0.72, 5                   q = 0.7210
Date    TT    R. A. (2000) Decl.     Delta      r     Elong.  Phase     V
2007 11 16    03 38.32   +07 04.6    0.220    1.205   167.9     9.9    21.1
2007 11 17    03 35.90   +07 46.8    0.231    1.216   168.8     9.1    21.1
2007 11 18    03 33.70   +08 25.5    0.242    1.227   169.4     8.6    21.2
2007 11 19    03 31.68   +09 01.1    0.253    1.238   169.7     8.2    21.4
2007 11 20    03 29.83   +09 33.9    0.264    1.249   169.8     8.1    21.5
2007 11 21    03 28.14   +10 04.3    0.276    1.260   169.6     8.1    21.6
2007 11 22    03 26.60   +10 32.5    0.288    1.272   169.3     8.3    21.7
2007 11 23    03 25.18   +10 58.7    0.300    1.283   168.7     8.6    21.8
2007 11 24    03 23.88   +11 23.3    0.312    1.294   168.1     9.1    21.9
2007 11 25    03 22.69   +11 46.2    0.324    1.305   167.3     9.5    22.1
2007 11 26    03 21.60   +12 07.7    0.336    1.316   166.5    10.1    22.2

Timothy B. Spahr             (C) Copyright 2007 MPC           M.P.E.C. 2007-V117

Read MPEC 2007-V116 Read MPEC 2007-V118


Our Web policy. Index to the CBAT/MPC/ICQ pages.

MPC

Valid HTML 4.01!